SCP
0 0 0 0 0 0 0 0 0 0 0 0 0 0 0 0 0 0 0 0 0 0 0 0 0 0 0 0 0 0 0 0 0 0 0 0 0 0 0 0 0 0 0
0 0 0 0 0 0 0 0 0 0 0 0 0 0 0 0 0 0 0 0 0 0 0 0 0 0 0 0 0 0 0 0 0 0 0 0 0 0 0 0 0 0 0
0 0 0 0 0 0 0 0 0 0 0 0 0 0 0 0 0 0 0 0 0 0 0 0 0 0 0 0 0 0 0 0 0 0 0 0 0 0 0 0 0 0 0
0 0 0 0 0 0 0 0 0 0 0 0 0 0 0 0 0 0 0 0 0 0 0 0 0 0 0 0 0 0 0 0 0 0 0 0 0 0 0 0 0 0 0
0 0 0 0 0 0 0 0 0 0 0 0 0 0 0 0 0 0 0 0 0 0 0 0 0 0 0 0 0 0 0 0 0 0 0 0 0 0 0 0 0 0 0
0 0 0 0 0 0 0 0 0 0 0 0 0 0 0 0 0 0 0 0 0 0 0 0 0 0 0 0 0 0 0 0 0 0 0 0 0 0 0 0 0 0 0
0 0 0 0 0 0 0 0 0 0 0 0 0 0 0 0 0 0 0 0 0 0 0 0 0 0 0 0 0 0 0 0 0 0 0 0 0 0 0 0 0 0 0
0 0 0 0 0 0 0 0 0 0 0 0 0 0 0 0 0 0 0 0 0 0 0 0 0 0 0 0 0 0 0 0 0 0 0 0 0 0 0 0 0 0 0
0 0 0 0 0 0 0 0 0 0 0 0 0 0 0 0 0 0 0 0 0 0 0 0 0 0 0 0 0 0 0 0 0 0 0 0 0 0 0 0 0 0 0
0 0 0 0 0 0 0 0 0 0 0 0 0 0 0 0 0 0 0 0 0 0 0 0 0 0 0 0 0 0 0 0 0 0 0 0 0 0 0 0 0 0 0
0 0 0 0 0 0 0 0 0 0 0 0 0 0 0 0 0 0 0 0 0 0 0 0 0 0 0 0 0 0 0 0 0 0 0 0 0 0 0 0 0 0 0
0 0 0 0 0 0 0 0 0 0 0 0 0 0 0 0 0 0 0 0 0 0 0 0 0 0 0 0 0 0 0 0 0 0 0 0 0 0 0 0 0 0 0
0 0 0 0 0 0 0 0 0 0 0 0 0 0 0 0 0 0 0 0 0 0 0 0 0 0 0 0 0 0 0 0 0 0 0 0 0 0 0 0 0 0 0
0 0 0 0 0 0 0 0 0 0 0 0 0 0 0 0 0 0 0 0 0 0 0 0 0 0 0 0 0 0 0 0 0 0 0 0 0 0 0 0 0 0 0
0 0 0 0 0 0 0 0 0 0 0 0 0 0 0 0 0 0 0 0 0 0 0 0 0 0 0 0 0 0 0 0 0 0 0 0 0 0 0 0 0 0 0
0 0 0 0 0 0 0 0 0 0 0 0 0 0 0 0 0 0 0 0 0 0 0 0 0 0 0 0 0 0 0 0 0 0 0 0 0 0 0 0 0 0 0
0 0 0 0 0 0 0 0 0 0 0 0 0 0 0 0 0 0 0 0 0 0 0 0 0 0 0 0 0 0 0 0 0 0 0 0 0 0 0 0 0 0 0
0 0 0 0 0 0 0 0 0 0 0 0 0 0 0 0 0 0 0 0 0 0 0 0 0 0 0 0 0 0 0 0 0 0 0 0 0 0 0 0 0 0 0
0 0 0 0 0 0 0 0 0 0 0 0 0 0 0 0 0 0 0 0 0 0 0 0 0 0 0 0 0 0 0 0 0 0 0 0 0 0 0 0 0 0 0
0 0 0 0 0 0 0 0 0 0 0 0 0 0 0 0 0 0 0 0 0 0 0 0 0 0 0 0 0 0 0 0 0 0 0 0 0 0 0 0 0 0 0
0 0 0 0 0 0 0 0 0 0 0 0 0 0 0 0 0 0 0 0 0 0 0 0 0 0 0 0 0 0 0 0 0 0 0 0 0 0 0 0 0 0 0
0 0 0 0 0 0 0 0 0 0 0 0 0 0 0 0 0 0 0 0 0 0 0 0 0 0 0 0 0 0 0 0 0 0 0 0 0 0 0 0 0 0 0
0 0 0 0 0 0 0 0 0 0 0 0 0 0 0 0 0 0 0 0 0 0 0 0 0 0 0 0 0 0 0 0 0 0 0 0 0 0 0 0 0 0 0
0 0 0 0 0 0 0 0 0 0 0 0 0 0 0 0 0 0 0 0 0 0 0 0 0 0 0 0 0 0 0 0 0 0 0 0 0 0 0 0 0 0 0
0 0 0 0 0 0 0 0 0 0 0 0 0 0 0 0 0 0 0 0 0 0 0 0 0 0 0 0 0 0 0 0 0 0 0 0 0 0 0 0 0 0 0
0 0 0 0 0 0 0 0 0 0 0 0 0 0 0 0 0 0 0 0 0 0 0 0 0 0 0 0 0 0 0 0 0 0 0 0 0 0 0 0 0 0 0
Wind_Speed_500mb
67 72 77 79 81 83 87 89 89 88 89 86 82 77 73 75 76 79 80 84 89 96 96 93 90 83 76 67 70 69 71 68 64 53 49 43 42 38 34 31 27 33 32
57 63 68 71 74 79 83 82 84 84 84 82 80 79 74 74 75 78 79 79 86 83 96 102 100 85 83 73 68 69 65 64 58 55 48 47 47 40 35 37 32 37 35
27 41 50 57 63 68 73 75 74 75 77 77 74 75 75 77 77 74 76 83 83 80 85 88 88 85 87 67 75 62 65 59 54 50 47 46 44 44 41 36 37 39 37
20 23 28 36 46 56 62 66 68 69 69 69 71 70 70 68 70 71 80 81 73 79 79 74 95 87 82 73 66 52 59 56 51 53 52 49 46 45 39 36 41 41 39
25 27 28 32 35 38 41 47 53 56 59 66 66 67 69 73 72 71 72 80 74 81 76 82 88 82 71 61 47 53 48 51 57 54 52 52 51 42 39 36 40 41 41
31 31 31 31 30 28 30 33 37 42 51 58 54 54 57 60 61 63 62 61 64 66 69 71 70 79 69 61 43 51 52 56 55 59 54 53 45 37 38 36 42 44 42
27 28 28 26 24 24 24 25 28 32 36 38 41 44 49 54 58 63 67 68 66 65 63 60 66 64 65 48 46 51 49 56 61 53 52 45 39 31 37 38 44 48 46
27 27 27 26 24 23 22 23 26 28 30 33 35 36 37 36 39 40 42 48 55 54 53 57 59 57 48 52 49 43 55 61 62 58 49 42 42 35 39 34 45 58 54
18 18 18 19 20 22 23 25 26 28 29 29 26 25 25 29 34 32 35 41 45 47 45 48 48 41 39 41 43 50 59 58 55 54 53 51 45 36 36 34 53 53 55
8 9 10 14 17 21 24 26 27 26 25 21 20 22 27 31 32 33 31 30 35 34 36 42 43 43 49 38 47 54 53 53 55 57 56 52 43 41 37 45 57 59 60
4 0 3 7 9 12 16 21 25 26 24 22 20 22 25 29 29 30 28 26 26 28 31 33 33 28 34 44 54 53 50 53 51 55 56 56 51 46 45 67 59 56 60
7 5 5 7 9 10 12 13 16 20 22 22 21 19 21 26 27 26 26 24 26 29 31 28 25 32 39 41 48 48 51 55 55 58 63 63 61 56 74 67 51 58 63
7 3 1 3 4 5 6 8 9 11 13 16 17 18 21 26 24 26 19 20 22 23 21 23 28 37 42 44 47 53 56 59 58 63 68 69 72 61 66 60 60 58 67
7 4 2 2 2 2 2 2 6 7 9 9 10 13 17 19 20 22 23 22 21 19 19 27 31 37 44 49 52 53 57 64 71 74 75 72 68 69 72 67 64 59 63
12 11 10 10 9 9 9 10 10 8 7 9 12 14 15 15 19 21 22 23 25 25 29 33 41 45 46 51 54 60 70 70 71 67 74 78 79 79 78 71 65 63 69
16 16 15 14 13 13 13 13 13 12 13 14 14 12 12 15 17 18 21 24 26 26 35 43 48 50 54 57 60 61 63 66 72 76 81 79 82 88 80 76 69 71 76
19 16 15 15 14 13 13 14 15 14 14 13 14 15 17 16 17 20 22 22 29 33 38 42 48 50 54 56 56 57 60 64 68 73 76 84 79 76 77 80 80 76 79
21 20 16 14 14 14 14 15 16 16 17 19 20 21 21 22 23 25 27 25 25 26 32 40 46 50 52 57 62 63 61 60 64 67 71 72 70 70 71 75 78 78 77
22 19 16 13 12 12 13 15 17 20 23 24 23 22 24 26 29 30 32 31 30 29 30 34 38 43 47 48 52 60 64 63 61 60 62 64 63 60 61 63 68 71 70
21 15 12 8 7 9 12 17 19 22 26 28 30 33 33 33 34 34 33 32 33 33 32 35 38 41 44 45 48 52 53 54 59 56 56 55 54 53 56 56 57 59 61
17 11 5 2 6 12 16 21 26 29 30 33 36 36 38 38 38 39 39 41 43 42 43 46 46 45 47 48 47 47 51 56 54 55 54 52 53 54 53 55 59 61 61
11 6 2 6 13 20 27 30 32 34 35 36 37 39 41 42 42 42 42 44 45 47 51 54 55 59 62 64 63 59 57 58 61 60 56 54 55 57 59 57 57 56 56
7 8 11 14 20 25 28 33 36 39 41 42 43 44 45 45 44 45 45 46 45 45 47 51 56 58 58 60 63 65 67 69 68 66 65 65 64 60 56 53 51 52 52
15 17 20 22 27 31 34 38 42 44 47 48 48 48 47 47 47 47 47 47 48 47 47 48 49 53 55 55 55 55 57 57 58 60 59 58 59 56 52 50 48 47 47
24 26 28 30 34 37 40 44 47 48 50 51 51 52 52 52 51 50 49 47 47 47 46 46 48 50 50 50 51 51 50 48 48 49 50 51 51 51 49 47 44 42 41
31 33 35 38 42 45 47 49 51 53 54 54 55 55 55 55 54 53 51 50 48 46 45 45 46 47 48 47 46 45 44 41 39 41 42 43 44 44 43 41 39 38 36
Wind_Direction_500mb
251 254 257 260 263 264 264 266 269 272 274 274 275 274 272 268 266 261 264 265 265 262 259 259 257 255 255 259 254 246 246 243 244 247 240 236 233 231 231 237 254 259 267
251 252 253 255 258 261 265 267 268 268 272 275 276 273 272 269 262 264 267 269 273 268 264 259 262 256 253 258 250 253 248 246 245 245 241 235 233 234 233 239 247 255 263
249 251 252 253 254 256 257 259 261 265 269 272 273 273 271 268 266 267 268 271 268 276 268 269 259 262 257 256 248 248 249 248 247 245 242 238 233 231 233 241 256 252 258
254 260 257 256 255 255 256 257 259 259 260 265 267 270 272 271 273 275 274 274 269 270 277 265 266 256 260 259 253 250 251 251 250 242 238 238 235 234 235 254 252 251 256
253 254 253 252 255 256 256 255 255 255 254 256 260 262 266 269 272 271 270 268 279 282 268 264 261 256 253 252 240 253 252 259 251 246 242 239 236 232 249 261 253 254 255
246 251 256 258 258 254 249 248 250 253 256 259 261 262 265 267 268 270 273 277 278 282 276 274 271 262 254 249 237 244 254 254 251 249 247 244 238 232 262 259 262 255 256
248 252 256 257 256 257 258 259 258 261 266 270 270 270 266 263 262 265 266 267 270 271 273 272 265 259 256 248 245 246 252 254 252 249 249 246 237 253 268 266 266 261 261
246 251 254 253 249 248 251 254 256 259 264 269 271 272 273 277 280 277 274 273 273 276 273 270 264 259 251 248 247 251 256 257 251 251 251 240 230 253 262 264 276 268 262
238 249 255 255 255 257 261 262 270 275 278 279 284 287 291 286 279 282 278 277 276 274 274 270 262 255 245 252 261 259 258 253 252 251 245 236 237 255 257 265 270 266 268
263 276 282 277 273 270 268 269 271 271 274 277 278 282 289 288 283 283 285 285 283 280 272 269 257 239 239 254 258 259 258 259 256 255 254 244 247 256 269 273 264 269 267
171 22 347 332 326 309 294 285 286 288 286 280 282 288 289 289 290 287 297 292 284 273 268 265 264 254 249 249 261 261 264 261 255 252 252 249 247 259 274 280 270 268 263
108 69 27 5 355 343 330 321 307 301 292 285 278 269 275 284 294 301 299 303 291 285 277 261 246 252 255 256 258 267 264 258 255 252 250 247 245 267 284 273 267 269 267
144 139 284 320 324 314 331 333 323 315 306 299 295 296 280 274 281 287 295 304 303 295 277 259 247 250 257 256 260 262 258 253 253 253 254 254 257 266 274 269 265 263 261
151 170 202 313 292 297 305 337 18 1 335 317 308 299 285 277 278 275 276 275 275 268 264 259 253 257 262 267 265 263 263 264 261 261 262 261 256 264 270 269 261 261 261
149 137 132 121 105 92 90 78 64 63 43 23 358 342 330 315 297 286 280 276 272 265 255 250 250 251 265 264 265 265 264 261 259 265 267 263 260 268 274 272 263 261 258
138 125 115 100 85 70 58 56 59 47 38 33 24 22 7 336 320 299 282 271 261 255 265 266 266 264 268 273 273 274 269 266 266 269 269 263 267 274 274 274 266 264 260
130 125 118 111 102 88 74 58 45 41 35 26 18 6 358 349 333 321 312 289 267 261 260 264 272 276 281 283 281 278 277 274 274 272 271 268 275 278 278 276 273 267 260
137 128 116 98 82 68 55 45 39 31 18 15 5 357 351 343 337 331 323 316 301 287 282 281 276 276 281 289 290 291 290 286 282 280 279 278 279 283 281 278 273 270 271
131 125 113 93 73 50 34 25 12 3 353 353 351 346 343 343 339 334 331 324 316 307 303 297 292 294 294 294 293 291 296 296 293 291 289 288 287 285 282 280 278 276 275
137 133 114 88 41 15 357 343 342 338 335 330 327 324 325 324 322 323 322 320 314 306 299 287 289 292 294 294 292 289 291 294 295 293 291 288 286 284 281 280 280 279 277
144 140 125 40 351 330 325 324 322 321 320 318 318 318 317 318 317 314 312 310 307 303 296 290 286 282 280 280 279 277 281 284 287 290 288 289 289 285 281 281 281 281 279
158 172 230 311 318 322 324 324 323 320 318 316 314 312 313 314 315 316 313 308 304 301 298 296 291 284 280 276 274 272 272 273 276 279 277 273 271 274 278 278 278 278 279
225 265 289 304 310 312 315 314 313 311 311 311 312 312 313 313 314 313 312 310 307 303 299 296 294 293 289 285 283 281 280 278 277 276 277 278 277 277 276 274 274 275 276
257 270 282 292 298 302 306 307 306 306 306 305 306 305 305 305 305 306 307 308 308 307 305 302 299 298 296 294 291 287 284 284 284 283 280 278 278 278 276 273 272 273 274
265 275 284 291 295 298 298 298 298 298 298 299 299 299 301 302 303 303 303 303 304 305 306 305 302 300 299 299 298 297 295 293 291 287 282 278 276 275 274 272 271 271 271
276 282 287 290 291 292 293 294 294 295 296 297 298 298 298 298 299 300 301 304 305 306 306 306 305 304 303 302 300 298 298 300 296 289 283 281 278 276 274 272 269 268 269
Wind_Speed_850mb
67 72 77 79 81 83 87 89 89 88 89 86 82 77 73 75 76 79 80 84 89 96 96 93 90 83 76 67 70 69 71 68 64 53 49 43 42 38 34 31 27 33 32
57 63 68 71 74 79 83 82 84 84 84 82 80 79 74 74 75 78 79 79 86 83 96 102 100 85 83 73 68 69 65 64 58 55 48 47 47 40 35 37 32 37 35
27 41 50 57 63 68 73 75 74 75 77 77 74 75 75 77 77 74 76 83 83 80 85 88 88 85 87 67 75 62 65 59 54 50 47 46 44 44 41 36 37 39 37
20 23 28 36 46 56 62 66 68 69 69 69 71 70 70 68 70 71 80 81 73 79 79 74 95 87 82 73 66 52 59 56 51 53 52 49 46 45 39 36 41 41 39
25 27 28 32 35 38 41 47 53 56 59 66 66 67 69 73 72 71 72 80 74 81 76 82 88 82 71 61 47 53 48 51 57 54 52 52 51 42 39 36 40 41 41
31 31 31 31 30 28 30 33 37 42 51 58 54 54 57 60 61 63 62 61 64 66 69 71 70 79 69 61 43 51 52 56 55 59 54 53 45 37 38 36 42 44 42
27 28 28 26 24 24 24 25 28 32 36 38 41 44 49 54 58 63 67 68 66 65 63 60 66 64 65 48 46 51 49 56 61 53 52 45 39 31 37 38 44 48 46
27 27 27 26 24 23 22 23 26 28 30 33 35 36 37 36 39 40 42 48 55 54 53 57 59 57 48 52 49 43 55 61 62 58 49 42 42 35 39 34 45 58 54
18 18 18 19 20 22 23 25 26 28 29 29 26 25 25 29 34 32 35 41 45 47 45 48 48 41 39 41 43 50 59 58 55 54 53 51 45 36 36 34 53 53 55
8 9 10 14 17 21 24 26 27 26 25 21 20 22 27 31 32 33 31 30 35 34 36 42 43 43 49 38 47 54 53 53 55 57 56 52 43 41 37 45 57 59 60
4 0 3 7 9 12 16 21 25 26 24 22 20 22 25 29 29 30 28 26 26 28 31 33 33 28 34 44 54 53 50 53 51 55 56 56 51 46 45 67 59 56 60
7 5 5 7 9 10 12 13 16 20 22 22 21 19 21 26 27 26 26 24 26 29 31 28 25 32 39 41 48 48 51 55 55 58 63 63 61 56 74 67 51 58 63
7 3 1 3 4 5 6 8 9 11 13 16 17 18 21 26 24 26 19 20 22 23 21 23 28 37 42 44 47 53 56 59 58 63 68 69 72 61 66 60 60 58 67
7 4 2 2 2 2 2 2 6 7 9 9 10 13 17 19 20 22 23 22 21 19 19 27 31 37 44 49 52 53 57 64 71 74 75 72 68 69 72 67 64 59 63
12 11 10 10 9 9 9 10 10 8 7 9 12 14 15 15 19 21 22 23 25 25 29 33 41 45 46 51 54 60 70 70 71 67 74 78 79 79 78 71 65 63 69
16 16 15 14 13 13 13 13 13 12 13 14 14 12 12 15 17 18 21 24 26 26 35 43 48 50 54 57 60 61 63 66 72 76 81 79 82 88 80 76 69 71 76
19 16 15 15 14 13 13 14 15 14 14 13 14 15 17 16 17 20 22 22 29 33 38 42 48 50 54 56 56 57 60 64 68 73 76 84 79 76 77 80 80 76 79
21 20 16 14 14 14 14 15 16 16 17 19 20 21 21 22 23 25 27 25 25 26 32 40 46 50 52 57 62 63 61 60 64 67 71 72 70 70 71 75 78 78 77
22 19 16 13 12 12 13 15 17 20 23 24 23 22 24 26 29 30 32 31 30 29 30 34 38 43 47 48 52 60 64 63 61 60 62 64 63 60 61 63 68 71 70
21 15 12 8 7 9 12 17 19 22 26 28 30 33 33 33 34 34 33 32 33 33 32 35 38 41 44 45 48 52 53 54 59 56 56 55 54 53 56 56 57 59 61
17 11 5 2 6 12 16 21 26 29 30 33 36 36 38 38 38 39 39 41 43 42 43 46 46 45 47 48 47 47 51 56 54 55 54 52 53 54 53 55 59 61 61
11 6 2 6 13 20 27 30 32 34 35 36 37 39 41 42 42 42 42 44 45 47 51 54 55 59 62 64 63 59 57 58 61 60 56 54 55 57 59 57 57 56 56
7 8 11 14 20 25 28 33 36 39 41 42 43 44 45 45 44 45 45 46 45 45 47 51 56 58 58 60 63 65 67 69 68 66 65 65 64 60 56 53 51 52 52
15 17 20 22 27 31 34 38 42 44 47 48 48 48 47 47 47 47 47 47 48 47 47 48 49 53 55 55 55 55 57 57 58 60 59 58 59 56 52 50 48 47 47
24 26 28 30 34 37 40 44 47 48 50 51 51 52 52 52 51 50 49 47 47 47 46 46 48 50 50 50 51 51 50 48 48 49 50 51 51 51 49 47 44 42 41
31 33 35 38 42 45 47 49 51 53 54 54 55 55 55 55 54 53 51 50 48 46 45 45 46 47 48 47 46 45 44 41 39 41 42 43 44 44 43 41 39 38 36
Wind_Direction_850mb
251 254 257 260 263 264 264 266 269 272 274 274 275 274 272 268 266 261 264 265 265 262 259 259 257 255 255 259 254 246 246 243 244 247 240 236 233 231 231 237 254 259 267
251 252 253 255 258 261 265 267 268 268 272 275 276 273 272 269 262 264 267 269 273 268 264 259 262 256 253 258 250 253 248 246 245 245 241 235 233 234 233 239 247 255 263
249 251 252 253 254 256 257 259 261 265 269 272 273 273 271 268 266 267 268 271 268 276 268 269 259 262 257 256 248 248 249 248 247 245 242 238 233 231 233 241 256 252 258
254 260 257 256 255 255 256 257 259 259 260 265 267 270 272 271 273 275 274 274 269 270 277 265 266 256 260 259 253 250 251 251 250 242 238 238 235 234 235 254 252 251 256
253 254 253 252 255 256 256 255 255 255 254 256 260 262 266 269 272 271 270 268 279 282 268 264 261 256 253 252 240 253 252 259 251 246 242 239 236 232 249 261 253 254 255
246 251 256 258 258 254 249 248 250 253 256 259 261 262 265 267 268 270 273 277 278 282 276 274 271 262 254 249 237 244 254 254 251 249 247 244 238 232 262 259 262 255 256
248 252 256 257 256 257 258 259 258 261 266 270 270 270 266 263 262 265 266 267 270 271 273 272 265 259 256 248 245 246 252 254 252 249 249 246 237 253 268 266 266 261 261
246 251 254 253 249 248 251 254 256 259 264 269 271 272 273 277 280 277 274 273 273 276 273 270 264 259 251 248 247 251 256 257 251 251 251 240 230 253 262 264 276 268 262
238 249 255 255 255 257 261 262 270 275 278 279 284 287 291 286 279 282 278 277 276 274 274 270 262 255 245 252 261 259 258 253 252 251 245 236 237 255 257 265 270 266 268
263 276 282 277 273 270 268 269 271 271 274 277 278 282 289 288 283 283 285 285 283 280 272 269 257 239 239 254 258 259 258 259 256 255 254 244 247 256 269 273 264 269 267
171 22 347 332 326 309 294 285 286 288 286 280 282 288 289 289 290 287 297 292 284 273 268 265 264 254 249 249 261 261 264 261 255 252 252 249 247 259 274 280 270 268 263
108 69 27 5 355 343 330 321 307 301 292 285 278 269 275 284 294 301 299 303 291 285 277 261 246 252 255 256 258 267 264 258 255 252 250 247 245 267 284 273 267 269 267
144 139 284 320 324 314 331 333 323 315 306 299 295 296 280 274 281 287 295 304 303 295 277 259 247 250 257 256 260 262 258 253 253 253 254 254 257 266 274 269 265 263 261
151 170 202 313 292 297 305 337 18 1 335 317 308 299 285 277 278 275 276 275 275 268 264 259 253 257 262 267 265 263 263 264 261 261 262 261 256 264 270 269 261 261 261
149 137 132 121 105 92 90 78 64 63 43 23 358 342 330 315 297 286 280 276 272 265 255 250 250 251 265 264 265 265 264 261 259 265 267 263 260 268 274 272 263 261 258
138 125 115 100 85 70 58 56 59 47 38 33 24 22 7 336 320 299 282 271 261 255 265 266 266 264 268 273 273 274 269 266 266 269 269 263 267 274 274 274 266 264 260
130 125 118 111 102 88 74 58 45 41 35 26 18 6 358 349 333 321 312 289 267 261 260 264 272 276 281 283 281 278 277 274 274 272 271 268 275 278 278 276 273 267 260
137 128 116 98 82 68 55 45 39 31 18 15 5 357 351 343 337 331 323 316 301 287 282 281 276 276 281 289 290 291 290 286 282 280 279 278 279 283 281 278 273 270 271
131 125 113 93 73 50 34 25 12 3 353 353 351 346 343 343 339 334 331 324 316 307 303 297 292 294 294 294 293 291 296 296 293 291 289 288 287 285 282 280 278 276 275
137 133 114 88 41 15 357 343 342 338 335 330 327 324 325 324 322 323 322 320 314 306 299 287 289 292 294 294 292 289 291 294 295 293 291 288 286 284 281 280 280 279 277
144 140 125 40 351 330 325 324 322 321 320 318 318 318 317 318 317 314 312 310 307 303 296 290 286 282 280 280 279 277 281 284 287 290 288 289 289 285 281 281 281 281 279
158 172 230 311 318 322 324 324 323 320 318 316 314 312 313 314 315 316 313 308 304 301 298 296 291 284 280 276 274 272 272 273 276 279 277 273 271 274 278 278 278 278 279
225 265 289 304 310 312 315 314 313 311 311 311 312 312 313 313 314 313 312 310 307 303 299 296 294 293 289 285 283 281 280 278 277 276 277 278 277 277 276 274 274 275 276
257 270 282 292 298 302 306 307 306 306 306 305 306 305 305 305 305 306 307 308 308 307 305 302 299 298 296 294 291 287 284 284 284 283 280 278 278 278 276 273 272 273 274
265 275 284 291 295 298 298 298 298 298 298 299 299 299 301 302 303 303 303 303 304 305 306 305 302 300 299 299 298 297 295 293 291 287 282 278 276 275 274 272 271 271 271
276 282 287 290 291 292 293 294 294 295 296 297 298 298 298 298 299 300 301 304 305 306 306 306 305 304 303 302 300 298 298 300 296 289 283 281 278 276 274 272 269 268 269